{"data":{"norad_id":39260,"epoch":"2026-09-20T04:04:37.035840Z","epoch_age_seconds":46629,"freshness":"FRESH","line1":"1 39260U 13052A   26263.16987310  .00000073  00000+0  58036-4 0  9990","line2":"2 39260  98.5110 232.7367 0015742 108.4017 251.8871 14.15772605672001","mean_motion":14.15772605,"eccentricity":0.0015742,"inclination_deg":98.511,"raan_deg":232.7367,"arg_perigee_deg":108.4017,"mean_anomaly_deg":251.8871,"bstar":5.8036e-5,"rev_number":67200,"period_min":101.71124903211,"perigee_km":828.32277081276,"apogee_km":851.04736180633,"semimajor_km":7217.8220663095,"source":"CELESTRAK","updated_at":"2026-09-20T09:00:33.215459Z"}}